Location: Casteau
(50.5142°N, 4.0161°E)
Time: 10:46:13
(UTC+00:00)

Daily predictions for brighter satellites

Satellite Brightness Start Highest point End
(mag) Time Altitude Azimuth Time Altitude Azimuth Time Altitude Azimuth
NOSS 3-2 (A) 4.4 18:10:49 10° NW 18:17:44 50° NNE 18:25:39 10° ESE
Meteor 1-21 4.3 18:14:25 10° N 18:20:02 63° ENE 18:25:34 10° SSE
Cosmos 2227 Rocket 3.9 18:16:38 10° WSW 18:21:50 37° NW 18:27:04 10° NNE
CZ-2D R/B 4.0 18:18:09 10° S 18:21:59 58° W 18:25:51 10° NNW
USA 116 3.7 18:18:56 10° NNE 18:22:11 45° E 18:25:45 10° S
GP-B 3.4 18:19:21 10° N 18:23:49 78° W 18:28:15 10° S
CSL-04 Debris 4.2 18:19:21 10° SSE 18:24:43 79° ENE 18:30:08 10° NNW
SKYMED 2 4.2 18:21:00 10° N 18:25:19 63° WNW 18:29:36 10° SSW
Cosmos 1603 3.9 18:22:39 10° NNW 18:28:21 79° WSW 18:33:58 10° SSE
YAOGAN 1 2.9 18:24:46 10° S 18:29:06 72° WSW 18:33:26 10° NNW
HJ-1C 3.3 18:28:13 10° SSE 18:31:29 68° ENE 18:34:47 10° N
Cosmos 1898 Rocket 3.5 18:26:58 10° S 18:32:05 66° ESE 18:37:14 10° NNE
Cosmos 1867 3.6 18:26:53 10° NW 18:32:22 70° NE 18:37:49 10° SE
Timation 1 Rocket 4.4 18:26:39 10° SSW 18:32:38 88° WNW 18:38:39 10° NNE
Okean 2 3.5 18:29:22 10° NNW 18:33:34 82° W 18:37:44 10° S
CSL-04 Rocket 3.7 18:29:01 10° SSE 18:34:27 88° ENE 18:40:00 10° NNW
USA 234 4.3 18:37:11 10° ENE 18:42:04 22° SE 18:46:55 10° S
Cosmos 858 Rocket 4.5 18:40:10 10° S 18:45:19 62° ESE 18:50:28 10° NNE
CREW DRAGON DEMO-1 DEB 2.9 18:42:22 10° W 18:45:24 70° N 18:47:59 13° E
USA 102 4.3 18:39:41 10° SSE 18:45:57 74° WSW 18:49:05 10° NW
Cosmos 1782 Rocket 3.5 18:45:10 10° S 18:49:35 84° E 18:54:04 10° NNE
Cosmos 807 4.3 18:46:33 10° S 18:49:40 79° E 18:53:26 10° NNE
Cosmos 1975 3.1 18:46:35 10° SSW 18:50:39 76° W 18:54:46 10° N
Cosmos 2233 Rocket 4.3 18:44:37 10° SSW 18:50:51 75° W 18:57:05 10° N
Cosmos 1025 Rocket 3.4 18:47:08 10° N 18:51:20 44° ENE 18:55:32 10° SSE
Cosmos 372 Rocket 4.5 18:46:34 10° SSE 18:51:21 37° ESE 18:56:07 10° NE
CZ-4 R/B 3.2 18:47:27 10° SSW 18:51:21 36° W 18:55:16 10° NNW
Cosmos 1908 Rocket 4.4 18:47:36 10° SSW 18:51:52 54° WNW 18:56:11 10° N
NOSS 3-2 (C) 4.3 18:44:54 10° NW 18:51:52 52° NE 18:58:44 14° ESE
USA 186 2.1 18:49:03 10° SE 18:52:02 45° ENE 18:55:10 10° N
Nadezhda 4 Rocket 4.2 18:52:06 10° N 18:58:01 48° ENE 19:03:55 10° SSE
Cosmos 2082 Rocket 4.3 18:57:59 10° N 19:00:49 14° NNE 19:03:39 10° ENE
Cosmos 1937 Rocket 3.5 18:56:30 10° SSW 19:01:46 84° ESE 19:07:01 10° NNE
OBJECT-B 2.0 19:01:22 20° ESE 19:02:34 25° ENE 19:05:19 10° N
MOS 1 Rocket 3.0 18:58:41 10° NNE 19:03:14 76° ESE 19:07:34 10° S
Cosmos 2034 Rocket 4.4 18:57:29 10° SSE 19:03:26 44° E 19:09:23 10° NNE
FREGAT/IRIS 2.6 19:05:31 26° SE 19:06:37 42° ENE 19:09:07 10° N
Cosmos 1674 3.6 19:04:39 10° N 19:08:06 30° ENE 19:09:42 22° ESE
Cosmos 1975 Rocket 3.9 19:06:56 10° NNW 19:11:10 51° W 19:15:21 10° S
NOSS 8 (H) 4.1 19:10:37 10° SW 19:13:43 80° NW 19:16:47 10° NE
In-Cosmos 22 4.0 19:09:53 10° N 19:15:12 77° ENE 19:20:32 10° SSE
NOSS 2-2 (E) 3.1 19:14:02 10° SSW 19:17:30 64° SE 19:21:33 10° NE
Cosmos 1707 3.0 19:16:54 10° NNW 19:20:44 67° W 19:24:32 10° S
Resurs 01 Rocket 2.5 19:19:16 24° ESE 19:20:58 32° ENE 19:24:56 10° N
H-2A R/B 3.0 19:16:40 10° S 19:21:26 46° W 19:26:20 10° NNW
ARGOS 3.7 19:17:17 10° S 19:22:34 61° WSW 19:27:55 10° NNW
ATLAS 2AS CENTAUR R/B 4.3 19:24:48 17° E 19:24:48 17° E 19:27:58 10° ENE
CZ-2C R/B 2.7 19:18:14 10° NNE 19:23:41 59° E 19:29:12 10° S
Lacrosse 4 Rocket 3.8 19:22:48 10° N 19:23:58 11° NNE 19:25:09 10° NE
SJ-6B 2.6 19:21:47 15° SSE 19:24:48 85° E 19:28:35 10° NNW
KORONAS-FOTON 4.2 19:22:01 10° N 19:25:49 45° ENE 19:27:14 31° SE
NOSS 2-2 (D) 3.0 19:22:29 10° SSW 19:25:57 61° SE 19:29:55 10° NE
Sich 1 Rocket 4.0 19:23:21 10° SSW 19:27:50 68° WNW 19:32:23 10° N
MOS 1 4.3 19:23:39 10° SSE 19:29:22 89° ENE 19:35:07 10° NNW
Cosmos 1048 Rocket 4.0 19:25:15 10° NNW 19:30:35 78° ENE 19:34:10 21° SSE
ATLAS CENTAUR R/B 3.9 19:30:22 10° NW 19:32:25 14° NNW 19:34:28 10° NNE
CENTAUR R/B 3.2 19:25:03 10° NW 19:32:52 70° NE 19:38:33 24° ESE
Cosmos 1844 4.2 19:29:57 10° S 19:35:03 35° ESE 19:40:09 10° NE
ARIANE 5 R/B 3.6 19:37:43 27° ENE 19:38:16 28° ENE 19:42:00 10° N
ATLAS 3B R/B 3.5 19:32:30 10° NW 19:38:49 39° NNE 19:42:49 21° E
SL-08 RB Rocket 4.4 19:34:28 10° S 19:38:59 53° W 19:43:28 10° NNW
Cosmos 2263 Rocket 3.1 19:34:23 10° SW 19:39:48 51° NW 19:45:17 10° NNE
USA 238 DEB 3.8 19:33:37 10° NW 19:40:49 87° SW 19:45:38 25° SE
USA 238 3.8 19:33:43 10° NW 19:40:56 87° SW 19:45:43 25° SE
Cosmos 2285 Rocket 4.3 19:35:38 10° S 19:41:27 41° ESE 19:47:19 10° NE
ISS -2.7 19:38:51 10° SW 19:41:15 32° S 19:41:15 32° S
Abrixas rocket 2.2 19:40:01 10° WSW 19:42:32 52° SSW 19:42:32 52° SSW
SJ 16-02 4.2 19:40:32 10° W 19:43:43 19° NW 19:46:54 10° N
Cosmos 1844 Rocket 2.7 19:41:32 10° S 19:46:54 52° ESE 19:52:19 10° NE
Okean 2 Rocket 3.5 19:43:29 10° SSW 19:47:58 65° WNW 19:52:27 10° N
Spot 2 Rocket 4.3 19:48:07 30° E 19:49:01 32° ENE 19:53:28 10° N
Cosmos 1464 Rocket 4.3 19:45:35 10° SSW 19:51:41 68° WNW 19:57:52 10° N
Okean 1 Rocket 3.2 19:51:22 43° SE 19:52:18 51° E 19:56:40 10° NNE
Lacrosse 5 rocket 2.7 19:48:16 10° WNW 19:52:20 37° N 19:55:13 18° NE
Ariane Rocket 3.9 19:50:48 10° S 19:55:41 49° W 20:00:38 10° NNW
Cosmos 1092 Rocket 3.9 19:50:22 10° N 19:56:33 78° E 20:00:15 26° SSE
Meteor 1-15 Rocket 4.1 19:53:48 10° S 19:59:24 77° E 20:05:09 10° NNE
Resurs 1-3 3.6 19:57:58 34° S 19:59:52 80° WSW 20:04:18 10° NNW
Cosmos 2195 Rocket 4.4 19:53:34 10° N 19:59:53 74° ENE 20:03:07 30° SSE
Cosmos 1300 Rocket 4.5 19:56:44 10° SSW 20:01:00 49° WNW 20:05:21 10° N
Cosmos 494 Rocket 3.9 19:58:18 10° NNW 20:03:36 87° WSW 20:05:36 39° SSE
Cosmos 2026 Rocket 4.0 19:57:42 10° N 20:04:04 69° ENE 20:06:55 35° SSE
CZ-2C R/B 3.6 20:00:35 10° NNE 20:05:00 61° ESE 20:05:30 56° SE
Meteor 2-13 Rocket 4.4 19:59:05 10° N 20:05:18 89° WSW 20:09:01 26° S
Cosmos 2298 Rocket 4.0 20:00:16 10° SSW 20:05:37 85° WNW 20:11:00 10° NNE
SPOT 3 Rocket 3.5 20:03:38 30° S 20:06:14 81° WSW 20:11:25 10° NNW
Cosmos 1833 Rocket 3.4 20:01:19 10° NNW 20:06:35 37° NE 20:07:47 33° ENE
NOSS 3-2 (A) 4.3 20:01:42 10° NW 20:09:03 64° SW 20:13:57 26° SSE
NOSS 2-2 (C) 3.8 20:07:04 10° WSW 20:10:35 57° NW 20:14:42 10° NE
Cosmos 1428 Rocket 4.4 20:10:07 10° N 20:16:27 79° E 20:18:51 40° SSE
Cosmos 1626 2.6 20:14:52 10° N 20:17:51 54° N 20:17:51 54° N
Terra 3.4 20:19:13 22° NE 20:19:13 22° NE 20:22:18 10° N
Cosmos 1892 Rocket 3.9 20:16:24 10° N 20:20:06 51° NE 20:20:06 51° NE
Cosmos 2279 Rocket 4.2 20:20:50 47° ESE 20:21:18 47° E 20:27:16 10° NNE
USA 234 3.1 20:19:24 10° ENE 20:25:56 66° SE 20:32:27 10° SW
Meteor 2-5 Rocket 3.9 20:22:49 10° NNW 20:28:25 72° W 20:30:35 39° S
OBJECT-B 3.0 20:34:35 22° WSW 20:34:54 22° W 20:37:33 10° NW
Cosmos 1805 3.9 20:35:56 53° W 20:35:59 53° WNW 20:39:51 10° N
SPOT 5 3.6 20:40:10 44° NE 20:40:10 44° NE 20:44:43 10° N
NOSS 3-2 (C) 4.3 20:35:51 10° NW 20:43:11 62° SW 20:46:11 40° S
Meteor 1-22 Rocket 4.2 20:43:03 54° S 20:44:30 88° E 20:50:35 10° NNE
Cosmos 2082 Rocket 2.8 20:41:10 10° NNW 20:46:31 42° NE 20:46:33 42° NE
Cosmos 1125 Rocket 3.9 20:41:16 10° SW 20:46:33 65° WNW 20:51:52 10° NNE
Okean 1-7 Rocket 4.1 20:43:01 10° N 20:46:41 55° N 20:46:41 55° N
SL-14 R/B 4.4 20:48:40 10° NNW 20:51:36 42° NW 20:51:36 42° NW
COSMOS 2406 3.0 20:48:31 10° NNW 20:54:14 89° ENE 20:54:20 87° SE
Meteor 1-24 Rocket 4.1 20:49:53 10° NNW 20:55:14 57° W 20:56:23 48° SW
ERS-1 Rocket 3.3 20:57:24 56° NNE 20:57:24 56° NNE 21:01:35 10° N
Resurs 01 Rocket 2.9 20:56:51 33° WSW 20:57:25 34° W 21:01:31 10° NNW
Cosmos 2098 Rocket 4.0 20:56:05 10° N 21:03:25 78° E 21:03:50 75° ESE
Lacrosse 4 Rocket 3.1 20:59:56 10° NNW 21:02:11 27° N 21:02:11 27° N
Landsat 7 4.3 21:04:40 57° WNW 21:04:40 57° WNW 21:09:01 10° NNW
Cosmos 2266 Rocket 4.0 21:00:00 10° N 21:05:35 63° NE 21:05:35 63° NE
Exosat Rocket 4.3 21:01:57 10° SW 21:07:13 51° WNW 21:12:07 10° NNE
Cosmos 1655 Rocket 3.9 21:06:08 10° N 21:12:26 90° ENE 21:12:30 88° SSE
ATLAS 2AS CENTAUR R/B 2.9 21:11:59 67° SSE 21:12:38 69° SE 21:20:27 10° NE
SPOT 1/Viking Rocket 3.9 21:14:24 61° WNW 21:14:24 61° WNW 21:19:10 10° NNW
ARIANE 5 R/B 4.0 21:15:16 35° WNW 21:15:16 35° WNW 21:18:42 10° NNW
Cosmos 2278 Rocket 4.0 21:22:34 21° NE 21:22:34 21° NE 21:24:23 10° NE
CENTAUR R/B 3.9 21:16:00 10° NW 21:23:32 43° WSW 21:25:44 37° SSW
Spot 2 Rocket 4.5 21:28:19 41° W 21:28:19 41° W 21:32:41 10° NNW
ATLAS 3B R/B 2.6 21:23:16 10° NW 21:30:03 80° WSW 21:30:03 80° WSW
Cosmos 1844 Rocket 4.1 21:25:57 10° WSW 21:31:01 35° NW 21:36:09 10° NNE
Lacrosse 5 rocket 3.2 21:28:03 10° WNW 21:30:51 31° NNW 21:30:51 31° NNW
Cosmos 909 Rocket 4.2 21:41:08 10° NW 21:46:53 68° WNW 21:46:53 68° WNW
Cosmos 1833 Rocket 3.7 21:45:15 10° NW 21:49:28 42° WNW 21:49:28 42° WNW
Terra 3.5 21:58:07 31° NW 21:58:07 31° NW 22:00:45 10° NNW
USA 234 3.5 22:02:31 10° ENE 22:08:58 63° NNW 22:15:25 10° W
Cosmos 2082 Rocket 3.8 22:25:23 10° NW 22:28:23 28° WNW 22:28:23 28° WNW
NOSS 3-4 (A) 4.4 22:41:29 44° N 22:41:29 44° N 22:46:59 10° NE
NOSS 3-4 (C) 4.4 22:41:39 44° N 22:41:39 44° N 22:47:05 10° NE
CZ-4C R/B 4.2 23:02:00 22° NE 23:02:00 22° NE 23:04:09 10° NE
Cosmos 2278 Rocket 3.8 23:04:22 30° NNW 23:04:22 30° NNW 23:08:21 10° NNE
ATLAS 2AS CENTAUR R/B 3.8 22:59:08 22° W 23:04:07 48° NNW 23:11:36 10° NE
NOSS 3-1 (C) 4.4 23:22:27 10° NW 23:28:48 58° NNE 23:28:48 58° NNE
USA 234 4.0 23:45:15 10° ENE 23:54:28 31° NW 23:57:48 10° WNW
